Weather in Washington

United States     39°21′30″N   120°47′59″W
temp.,
°C
wind,
m/s
gust,
m/s
humid.,
%
clouds,
%
prec.,
mm/h
press.,
hPa
HPBL,
m
25 may, wed
wed2523:00+16ene45385 0.0 101361
02:00+15ene45406 0.0 101266
05:00+15ene454116 0.0 101263
08:00+22e223497 0.0 1011170
11:00+27wsw332154 0.0 10101869
14:00+29wsw4419100 0.0 10102332
17:00+28wsw3421100 0.0 10091927
20:00+19e114696 0.0 101011
26 may, thu
thu2623:00+16ene324618 0.0 101235
02:00+15ene344712 0.0 101152
05:00+15e334818 0.0 101143
08:00+21sse133642 0.0 1010359
11:00+25sw481959 0.0 10101599
14:00+25sw5817100 0.0 10101724
17:00+22sw462277 0.0 10111277
20:00+15se115244 0.0 101211
27 may, fri
fri2723:00+12ene335054 0.0 101544
02:00+12ene333876 0.0 101440
05:00+11ene323499 0.0 101530
08:00+17sse113071 0.0 1014238
11:00+21sw463199 0.0 10141591
14:00+21sw5833100 0.0 10132057
17:00+19sw4838100 0.0 10132045
20:00+15sw4850100 0.0 1013949
28 may, sat
sat2823:00+9ese21755 0.0 101415
02:00+8ese347888 0.0 101388
05:00+10s2867100 0.0 1012675
08:00+8se2587100 0.4 1013405
11:00+9s3568100 0.4 1013785
14:00+9ssw3676100 0.0 1013750
17:00+8ssw2598100 1.7 1011423
20:00+7s1399100 1.1 1011215
29 may, sun
sun2923:00+6ssw129941 3.8 101296
02:00+4ne119756 0.8 101333
05:00+3ne119621 1.4 101315
08:00+7nne01825 0.0 1012482
11:00+13wsw333635 0.0 10102267
14:00+13w664684 0.3 10082354
17:00+14wnw572623 0.7 10072591
20:00+9wnw284546 0.0 1008288